Weather History for Willmar, MN

Change the Weather History Date:

Monday, March 25, 2013

  Actual Average (KLJF) Record (KLJF)
Temperature  
Mean Temperature 30 °F -  
Max Temperature 37 °F 45 °F 68 °F (1968)
Min Temperature 24 °F 25 °F -2 °F (1955)
Degree Days  
Heating Degree Days 34    
Moisture  
Dew Point 16 °F    
Average Humidity 54    
Maximum Humidity 64    
Minimum Humidity 41    
Precipitation  
Precipitation 0.00 in - - ()
Sea Level Pressure  
Sea Level Pressure 30.19 in    
Wind  
Wind Speed 14 mph (NNW)    
Max Wind Speed 22 mph    
Max Gust Speed 26 mph    
Visibility 10 miles    
Events Snow    
Averages and records for this station are not official NWS values.
T = Trace of Precipitation, MM = Missing Value Source: NWS Daily Summary

Daily Weather History Graph

Daily Weather History Graph

Search for Another Location

Airport:

Trip Planner

Search our weather history database for the weather conditions in past years. The results will help you decide how hot, cold, wet, or windy it might be!

Date:

Astronomy

Mar. 25, 2013 Rise Set
Actual Time 7:13 AM CDT 7:39 PM CDT
Civil Twilight 6:44 AM CDT 8:09 PM CDT
Nautical Twilight 6:09 AM CDT 8:44 PM CDT
Astronomical Twilight 5:33 AM CDT 9:20 PM CDT
Moon 6:10 PM CDT (3/25) 6:01 AM CDT (3/25)
Length of Visible Light 13h 25m
Length of Day
12h 26m
Waxing Gibbous, 96% of the Moon is Illuminated
Mar 25
Waxing Gibbous
Mar 27
Full
Apr 2
Last Quarter
Apr 10
New
Apr 18
First Quarter

Hourly Weather History & Observations

Time (CDT) Temp. Windchill Dew Point Humidity Pressure Visibility Wind Dir Wind Speed Gust Speed Precip Events Conditions
12:15 AM 32.0 °F 23.0 °F 19.4 °F 60% 30.09 in 10.0 mi NNW 11.5 mph - N/A Snow Light Snow
12:35 AM 32.0 °F 22.5 °F 19.4 °F 60% 30.09 in 10.0 mi North 12.7 mph - N/A Snow Light Snow
12:55 AM 32.0 °F 22.5 °F 19.4 °F 60% 30.09 in 10.0 mi North 12.7 mph - N/A   Overcast
1:15 AM 32.0 °F 22.5 °F 19.4 °F 60% 30.09 in 10.0 mi North 12.7 mph - N/A   Overcast
1:35 AM 32.0 °F 23.6 °F 19.4 °F 60% 30.09 in 10.0 mi North 10.4 mph - N/A   Overcast
1:55 AM 32.0 °F 24.2 °F 19.4 °F 60% 30.10 in 10.0 mi North 9.2 mph - N/A   Overcast
2:15 AM 33.8 °F 24.3 °F 19.4 °F 56% 30.10 in 10.0 mi North 13.8 mph - N/A   Overcast
2:35 AM 33.8 °F 23.9 °F 17.6 °F 52% 30.10 in 10.0 mi North 15.0 mph - N/A   Overcast
2:56 AM 32.0 °F 21.6 °F 17.6 °F 55% 30.11 in 10.0 mi North 15.0 mph - N/A   Overcast
3:15 AM 33.8 °F 24.8 °F 17.6 °F 52% 30.11 in 10.0 mi North 12.7 mph - N/A   Overcast
3:35 AM 32.0 °F 22.5 °F 17.6 °F 55% 30.10 in 10.0 mi NNW 12.7 mph - N/A   Overcast
3:55 AM 32.0 °F 22.5 °F 15.8 °F 51% 30.10 in 10.0 mi North 12.7 mph - N/A   Overcast
4:16 AM 30.2 °F 20.2 °F 15.8 °F 55% 30.10 in 10.0 mi North 12.7 mph - N/A   Overcast
4:35 AM 30.2 °F 20.8 °F 15.8 °F 55% 30.11 in 10.0 mi North 11.5 mph - N/A   Overcast
4:55 AM 30.2 °F 20.2 °F 15.8 °F 55% 30.11 in 10.0 mi North 12.7 mph - N/A   Overcast
5:16 AM 30.2 °F 21.3 °F 15.8 °F 55% 30.12 in 10.0 mi NNW 10.4 mph - N/A   Scattered Clouds
5:35 AM 28.4 °F 19.1 °F 14.0 °F 55% 30.12 in 10.0 mi NNW 10.4 mph - N/A   Clear
5:55 AM 28.4 °F 19.1 °F 14.0 °F 55% 30.12 in 10.0 mi NNW 10.4 mph - N/A   Clear
6:15 AM 28.4 °F 19.1 °F 15.8 °F 59% 30.13 in 10.0 mi NNW 10.4 mph - N/A   Clear
6:35 AM 28.4 °F 19.1 °F 15.8 °F 59% 30.13 in 10.0 mi NNW 10.4 mph - N/A   Scattered Clouds
6:55 AM 28.4 °F 18.0 °F 15.8 °F 59% 30.14 in 10.0 mi NNW 12.7 mph - N/A   Scattered Clouds
7:15 AM 28.4 °F 18.0 °F 15.8 °F 59% 30.14 in 10.0 mi NNW 12.7 mph - N/A   Scattered Clouds
7:35 AM 28.4 °F 18.5 °F 14.0 °F 55% 30.15 in 10.0 mi NNW 11.5 mph - N/A   Scattered Clouds
7:55 AM 28.4 °F 18.0 °F 14.0 °F 55% 30.16 in 10.0 mi NNW 12.7 mph - N/A   Clear
8:15 AM 28.4 °F 18.0 °F 14.0 °F 55% 30.16 in 10.0 mi NNW 12.7 mph - N/A   Clear
8:35 AM 28.4 °F 17.0 °F 14.0 °F 55% 30.17 in 10.0 mi NNW 15.0 mph - N/A   Clear
8:55 AM 30.2 °F 19.8 °F 14.0 °F 51% 30.17 in 10.0 mi NNW 13.8 mph - N/A   Scattered Clouds
9:15 AM 30.2 °F 18.9 °F 14.0 °F 51% 30.17 in 10.0 mi NNW 16.1 mph - N/A   Scattered Clouds
9:35 AM 30.2 °F 19.8 °F 15.8 °F 55% 30.18 in 10.0 mi North 13.8 mph - N/A   Scattered Clouds
9:55 AM 32.0 °F 21.6 °F 15.8 °F 51% 30.19 in 10.0 mi North 15.0 mph 19.6 mph N/A   Mostly Cloudy
10:15 AM 32.0 °F 21.6 °F 15.8 °F 51% 30.19 in 10.0 mi North 15.0 mph - N/A   Mostly Cloudy
10:35 AM 33.8 °F 23.5 °F 15.8 °F 48% 30.19 in 10.0 mi North 16.1 mph - N/A   Mostly Cloudy
10:55 AM 33.8 °F 23.5 °F 15.8 °F 48% 30.19 in 10.0 mi North 16.1 mph - N/A   Scattered Clouds
11:15 AM 33.8 °F 22.8 °F 15.8 °F 48% 30.20 in 10.0 mi North 18.4 mph - N/A   Clear
11:35 AM 33.8 °F 23.5 °F 15.8 °F 48% 30.20 in 10.0 mi North 16.1 mph - N/A   Clear
11:55 AM 35.6 °F 25.2 °F 15.8 °F 44% 30.20 in 10.0 mi North 18.4 mph - N/A   Clear
12:15 PM 35.6 °F 25.5 °F 15.8 °F 44% 30.21 in 10.0 mi North 17.3 mph - N/A   Clear
12:35 PM 35.6 °F 25.9 °F 15.8 °F 44% 30.21 in 10.0 mi North 16.1 mph - N/A   Clear
12:55 PM 35.6 °F 25.5 °F 15.8 °F 44% 30.21 in 10.0 mi North 17.3 mph - N/A   Clear
1:15 PM 35.6 °F 26.2 °F 15.8 °F 44% 30.20 in 10.0 mi NNW 15.0 mph - N/A   Clear
1:35 PM 35.6 °F 25.9 °F 15.8 °F 44% 30.20 in 10.0 mi NW 16.1 mph - N/A   Scattered Clouds
1:55 PM 35.6 °F 25.5 °F 15.8 °F 44% 30.20 in 10.0 mi NNW 17.3 mph - N/A   Clear
2:15 PM 35.6 °F 25.5 °F 15.8 °F 44% 30.20 in 10.0 mi NW 17.3 mph - N/A   Clear
2:35 PM 37.4 °F 27.8 °F 15.8 °F 41% 30.20 in 10.0 mi NW 17.3 mph - N/A   Clear
2:55 PM 37.4 °F 28.2 °F 15.8 °F 41% 30.20 in 10.0 mi NW 16.1 mph - N/A   Clear
3:16 PM 37.4 °F 27.8 °F 17.6 °F 45% 30.20 in 10.0 mi NW 17.3 mph - N/A   Clear
3:35 PM 35.6 °F 25.5 °F 19.4 °F 52% 30.20 in 10.0 mi NW 17.3 mph - N/A   Clear
3:55 PM 35.6 °F 24.8 °F 19.4 °F 52% 30.20 in 10.0 mi NW 19.6 mph 25.3 mph N/A   Scattered Clouds
4:15 PM 35.6 °F 25.2 °F 19.4 °F 52% 30.20 in 10.0 mi NW 18.4 mph 24.2 mph N/A   Scattered Clouds
4:35 PM 35.6 °F 25.5 °F 19.4 °F 52% 30.21 in 10.0 mi NW 17.3 mph 24.2 mph N/A   Clear
4:55 PM 33.8 °F 23.5 °F 19.4 °F 56% 30.21 in 10.0 mi WNW 16.1 mph - N/A   Clear
5:15 PM 33.8 °F 21.9 °F 19.4 °F 56% 30.21 in 10.0 mi NW 21.9 mph 25.3 mph N/A   Clear
5:35 PM 33.8 °F 22.2 °F 19.4 °F 56% 30.22 in 10.0 mi NW 20.7 mph - N/A   Clear
5:55 PM 33.8 °F 22.8 °F 19.4 °F 56% 30.23 in 10.0 mi NW 18.4 mph 24.2 mph N/A   Clear
6:15 PM 32.0 °F 19.8 °F 19.4 °F 60% 30.23 in 10.0 mi NW 20.7 mph 24.2 mph N/A   Clear
6:35 PM 32.0 °F 20.5 °F 19.4 °F 60% 30.24 in 10.0 mi WNW 18.4 mph 23.0 mph N/A   Clear
6:55 PM 30.2 °F 17.8 °F 17.6 °F 60% 30.24 in 10.0 mi NW 19.6 mph - N/A   Clear
7:15 PM 30.2 °F 17.8 °F 17.6 °F 60% 30.25 in 10.0 mi NW 19.6 mph 26.5 mph N/A   Clear
7:35 PM 30.2 °F 18.1 °F 17.6 °F 60% 30.26 in 10.0 mi NW 18.4 mph - N/A   Clear
7:55 PM 28.4 °F 16.6 °F 17.6 °F 64% 30.26 in 10.0 mi NW 16.1 mph - N/A   Clear
8:15 PM 28.4 °F 16.6 °F 17.6 °F 64% 30.26 in 10.0 mi NW 16.1 mph - N/A   Clear
8:35 PM 28.4 °F 17.0 °F 15.8 °F 59% 30.26 in 10.0 mi NW 15.0 mph - N/A   Clear
8:55 PM 28.4 °F 17.0 °F 15.8 °F 59% 30.27 in 10.0 mi NW 15.0 mph - N/A   Clear
9:16 PM 26.6 °F 14.7 °F 15.8 °F 64% 30.27 in 10.0 mi NW 15.0 mph - N/A   Clear
9:35 PM 26.6 °F 15.2 °F 15.8 °F 64% 30.27 in 10.0 mi NW 13.8 mph - N/A   Clear
9:55 PM 26.6 °F 15.2 °F 14.0 °F 59% 30.28 in 10.0 mi NW 13.8 mph - N/A   Clear
10:15 PM 26.6 °F 16.2 °F 14.0 °F 59% 30.28 in 10.0 mi NW 11.5 mph - N/A   Clear
10:35 PM 26.6 °F 16.2 °F 12.2 °F 55% 30.28 in 10.0 mi NW 11.5 mph - N/A   Clear
10:55 PM 24.8 °F 14.6 °F 12.2 °F 59% 30.28 in 10.0 mi NW 10.4 mph - N/A   Clear
11:15 PM 24.8 °F 16.1 °F 12.2 °F 59% 30.28 in 10.0 mi WNW 8.1 mph - N/A   Clear
11:35 PM 24.8 °F 16.1 °F 12.2 °F 59% 30.28 in 10.0 mi NW 8.1 mph - N/A   Clear
11:55 PM 24.8 °F 14.6 °F 12.2 °F 59% 30.28 in 10.0 mi NW 10.4 mph - N/A   Clear